sat.trackr.live / text

‹ back to catalog

FORMOSAT 7-3

NORAD 44343 · 2019-036E

PAYLOAD ACTIVE UNKNOWN

§ Identity

Operator
Country
ROC
Launch date
2019-06-25
Launch site
AFETR
Launch vehicle
Mass (kg)
RCS (m²)

External: N2YO · Heavens-Above · Gunter

§ Orbital elements

Epoch: 2026-05-24T20:28:28.885440Z

Period
95.39 min
Inclination
24.0004°
Eccentricity
0.0000942
Mean motion
15.09596798 rev/d
Perigee alt
536.8 km
Apogee alt
538.1 km
Semi-major
6,915.6 km
B*
2.3123e-4
RAAN
339.1169°
Arg perigee
29.1728°
Mean anomaly
330.8828°
Rev number
37,971

§ Raw data

FORMOSAT 7-31 44343U 19036E   26144.85311210  .00004159  00000+0  23123-3 0  99972 44343  24.0004 339.1169 0000942  29.1728 330.8828 15.09596798379714

JSON: /api/v1/satellites/44343 · /tle

For live sub-satellite position, see the globe view (requires WebGL).

§ Visibility from observer

Set your observer location to see the next 7 days of passes ≥ 10°. The values pass through the URL so the page stays shareable.

No JS? Fill the form by hand. The geolocation button needs JavaScript.

§ Radio — SatNOGS DB

ModeDescriptionDownlinkUplink
CW Downlink 400.900 MHz

1 transmitter · refreshed weekly from db.satnogs.org